Flag for Germany Weather past 2 weeks in Nienburg (Weser), Lower Saxony, Germany

Now
91 °F

Passing clouds.


Feels Like: 89 °F
Forecast: 63 / 85 °F
Wind: 13 mph from South

Location: Wunstorf Airport

Current Time: Aug 3, 2015 at 5:44:02 PM

Latest Report: Aug 3, 2015 at 4:20 PM


Visibility: N/A

Pressure: 29.98 "Hg

Humidity: 26%

Dew point: 52 °F

Location of Nienburg (Weser)Location

Historic Weather in Nienburg (Weser) — Graph

°F

Nienburg (Weser) temperature yesterday

Maximum temperature yesterday: 79 °F (at 5:20 PM)
Minimum temperature yesterday: 52 °F (at 6:20 AM)
Average temperature yesterday: 67 °F

Past Weeks' High & Low Weather Summary

 TemperatureHumidityPressure
High91 °F (Aug 3, 4:20 PM)100% (Jul 21, 1:20 AM)30.15 "Hg (Jul 21, 1:20 AM)
Low48 °F (Jul 31, 5:20 AM)26% (Aug 3, 2:20 PM)29.47 "Hg (Jul 25, 11:20 AM)
Average64 °F67%29.86 "Hg
* Reported Jul 19 4:20 PM — Aug 3 4:20 PM, Nienburg (Weser), Weather by CustomWeather, © 2015

Note: Actual official high and low records may vary slightly from our data, if they occured in-between our weather recording intervals... More about our weather records

Advertising

Nienburg (Weser) weather history for previous 24 hours

 ConditionsComfort  
Time TempWeatherWind HumidityBarometerVisibility
4:20 PM
Mon, Aug 3
91 °FPassing clouds.13 mph26%29.98 "HgN/A
3:20 PM90 °FPassing clouds.14 mph26%29.98 "HgN/A
2:20 PM90 °FPassing clouds.15 mph26%29.98 "HgN/A
1:20 PM88 °FPassing clouds.14 mph29%30.01 "HgN/A
12:20 PM84 °FPassing clouds.8 mph40%30.01 "HgN/A
11:20 AM79 °FPassing clouds.10 mph45%30.04 "HgN/A
10:20 AM75 °FPassing clouds.13 mph47%30.04 "HgN/A
9:20 AM70 °FPassing clouds.12 mph53%30.04 "HgN/A
8:20 AM64 °FPassing clouds.9 mph64%30.04 "HgN/A
7:20 AM59 °FScattered clouds.6 mph72%30.04 "HgN/A
6:20 AM55 °FPassing clouds.6 mph77%30.07 "HgN/A
5:20 AM55 °FPassing clouds.8 mph77%30.07 "HgN/A
4:20 AM57 °FCool.7 mph72%30.07 "Hg3 mi
3:20 AM57 °FCool.7 mph77%30.09 "Hg3 mi
2:20 AM57 °FCool.6 mph77%30.09 "Hg4 mi
1:20 AM59 °FCool.6 mph72%30.09 "Hg3 mi
12:20 AM63 °FMild.7 mph64%30.12 "Hg3 mi
11:20 PM
Sun, Aug 2
64 °FMild.6 mph60%30.12 "Hg4 mi
10:20 PM66 °FMild.6 mph56%30.09 "Hg3 mi
9:20 PM70 °FMild.6 mph50%30.09 "Hg4 mi
8:20 PM73 °FMild.7 mph44%30.09 "Hg4 mi
7:20 PM75 °FMild.3 mph34%30.09 "Hg4 mi
6:20 PM79 °FPleasantly warm.3 mph28%30.09 "Hg4 mi
5:20 PM79 °FPleasantly warm.5 mph28%30.12 "Hg4 mi
Weather by CustomWeather, © 2015

See weather overviewHow to use our weather pages